Погода в Дынуве

Польша     49°48′45″N   22°14′05″E
темп.,
°C
ветер,
м/с
пор.,
м/с
влажн.,
%
обл.,
%
осадки,
мм/ч
давл.,
гПа
погр.,
м
25 июня, сб
сб2523:00+15вюв22790 0.0 101536
02:00+14вюв22840 0.0 101526
05:00+14вюв228222 0.0 101428
08:00+21вюв475110 0.0 1014427
11:00+25в543858 0.0 10141162
14:00+26в553449 0.0 10131707
17:00+26в553959 0.0 10131463
20:00+21в4115695 0.0 1013401
26 июня, вс
вс2623:00+19в4116872 0.0 1015274
02:00+15всв22874 0.0 101526
05:00+13в22935 0.0 101622
08:00+20в46645 0.0 1017421
11:00+26вюв55460 0.0 10171407
14:00+27в65415 0.0 10161796
17:00+27в564211 0.0 10161600
20:00+21в511705 0.0 1018447
27 июня, пн
пн2723:00+17в23920 0.0 101960
02:00+15в22930 0.0 101919
05:00+14юв22940 0.0 101925
08:00+22вюв34642 0.0 1019385
11:00+27в43460 0.0 10191430
14:00+29всв54386 0.0 10172258
17:00+26вюв365159 0.0 1017580
20:00+22в237042 0.0 101756
28 июня, вт
вт2823:00+18юв22840 0.0 101824
02:00+16юв11890 0.0 101811
05:00+16юв228813 0.4 101832
08:00+22юв23730 1.0 1018226
11:00+29ююв12430 0.0 10171637
14:00+28ссв124657 0.1 10161668
17:00+18юв5129262 3.0 1018289
20:00+17юв1192100 3.4 101918
29 июня, ср
ср2923:00+16юв2190100 0.0 101913
02:00+15зсз11905 0.0 101911
05:00+15ссв019075 0.0 101911
08:00+21ссв12695 0.0 1018373
11:00+26всв45535 0.0 10181223
14:00+30в444074 0.0 10162522
17:00+26ююв794962 0.1 1015569
20:00+22св227118 0.1 101418